EW5380 Weather Reports


time (UTC)temp
C
wind
direction
speed
KPH
gust
KPH
rain 1hr
cm
rain 24hr
cm
rain mn
cm
humidity
%
barometer
mb
20260505041410 13 238 0.0 0.0 0.00 0.00 0.00 66 1016.3
20260505040907 13 238 0.0 0.0 0.00 0.00 0.00 65 1015.9
20260505040405 13 236 0.0 0.0 0.00 0.00 0.00 65 1016.3
20260505035902 13 236 0.0 0.0 0.00 0.00 0.00 65 1016.3
20260505035357 13 236 0.0 0.0 0.00 0.00 0.00 66 1016.3
20260505034855 13 236 0.0 0.0 0.00 0.00 0.00 65 1016.3
20260505034351 13 236 0.0 0.0 0.00 0.00 0.00 65 1016.3
20260505033849 13 236 0.0 0.0 0.00 0.00 0.00 64 1016.3
20260505033345 13 265 0.0 0.0 0.00 0.00 0.00 64 1016.3
20260505032843 13 265 0.0 0.0 0.00 0.00 0.00 64 1016.3
20260505032339 14 265 0.0 0.0 0.00 0.00 0.00 64 1016.3
20260505031836 14 265 0.0 0.0 0.00 0.00 0.00 63 1016.3
20260505031333 14 265 0.0 0.0 0.00 0.00 0.00 63 1016.7
20260505030830 14 265 0.0 0.0 0.00 0.00 0.00 63 1016.7
20260505030326 14 213 0.0 0.0 0.00 0.00 0.00 63 1016.7
20260505025822 14 213 0.0 0.0 0.00 0.00 0.00 63 1016.7
20260505025320 14 213 0.0 0.0 0.00 0.00 0.00 62 1016.7
20260505024818 14 212 0.0 0.0 0.00 0.00 0.00 62 1016.3
20260505024316 14 212 0.0 0.0 0.00 0.00 0.00 62 1016.3
20260505023813 14 212 0.0 0.0 0.00 0.00 0.00 62 1016.3
20260505023309 15 212 0.0 0.0 0.00 0.00 0.00 62 1016.3
20260505022806 15 212 0.0 0.0 0.00 0.00 0.00 62 1016.3
20260505022304 15 212 0.0 0.0 0.00 0.00 0.00 62 1016.3
20260505021800 15 202 0.0 0.0 0.00 0.00 0.00 61 1016.3
20260505021257 15 202 0.0 0.0 0.00 0.00 0.00 61 1016.3
20260505020753 15 202 0.0 0.0 0.00 0.00 0.00 60 1016.3
20260505020254 15 202 0.0 0.0 0.00 0.00 0.00 60 1016.3
20260505015751 15 202 0.0 0.0 0.00 0.00 0.00 60 1016.3
20260505015248 15 202 0.0 0.0 0.00 0.00 0.00 60 1016.3
20260505014745 15 202 0.0 0.0 0.00 0.00 0.00 59 1015.9
20260505014243 15 202 0.0 0.0 0.00 0.00 0.00 58 1015.9
20260505013739 15 202 0.0 0.0 0.00 0.00 0.00 58 1015.9
20260505013237 16 273 0.0 0.0 0.00 0.00 0.00 57 1015.6
20260505012734 16 273 0.0 0.0 0.00 0.00 0.00 57 1015.6
20260505012231 16 274 0.0 0.0 0.00 0.00 0.00 56 1015.6
20260505011727 16 274 0.0 0.0 0.00 0.00 0.00 56 1015.6
20260505011225 16 171 0.0 0.0 0.00 0.00 0.00 56 1015.6
20260505010720 16 165 0.0 0.0 0.00 0.00 0.00 56 1015.6
20260505010217 16 165 0.0 0.0 0.00 0.00 0.00 56 1015.6
20260505005713 16 165 0.0 0.0 0.00 0.00 0.00 55 1015.6
20260505005210 17 159 0.0 0.0 0.00 0.00 0.00 55 1015.6
20260505004707 17 159 0.0 0.0 0.00 0.00 0.00 55 1015.6
20260505004204 17 159 0.0 0.0 0.00 0.00 0.00 54 1015.6
20260505003701 17 160 0.0 0.0 0.00 0.00 0.00 53 1015.6
20260505003159 17 160 0.0 0.0 0.00 0.00 0.00 53 1015.2
20260505002655 18 237 0.0 0.0 0.00 0.00 0.00 52 1015.2
20260505002153 18 237 0.0 0.0 0.00 0.00 0.00 52 1015.2
20260505001649 18 237 0.0 0.0 0.00 0.00 0.00 51 1015.2
20260505001147 18 151 0.0 0.0 0.00 0.00 0.00 51 1015.2
20260505000644 18 151 0.0 0.0 0.00 0.00 0.00 50 1015.2
20260505000142 19 151 0.0 0.0 0.00 0.00 0.00 50 1015.2
20260504235638 19 145 0.0 0.0 0.00 0.00 0.00 49 1014.9
20260504235134 20 139 0.0 0.0 0.00 0.00 0.00 49 1014.9
20260504234632 20 139 0.0 0.0 0.00 0.00 0.00 50 1014.9
20260504234129 20 140 0.0 0.0 0.00 0.00 0.00 49 1014.9
20260504233625 20 300 0.0 0.0 0.00 0.00 0.00 46 1014.9
20260504233121 21 169 0.0 0.0 0.00 0.00 0.00 48 1014.9
20260504232619 21 171 0.0 0.0 0.00 0.00 0.00 47 1014.9
20260504232116 21 167 0.0 0.0 0.00 0.00 0.00 48 1014.9
20260504231612 21 154 0.0 0.0 0.00 0.00 0.00 47 1014.4
20260504231108 21 136 0.0 0.0 0.00 0.00 0.00 46 1014.9
20260504230604 21 136 0.0 0.0 0.00 0.00 0.00 48 1014.4
20260504230058 21 136 0.0 0.0 0.00 0.00 0.00 48 1014.4
20260504225555 21 117 0.0 0.0 0.00 0.00 0.00 47 1014.4
20260504225052 21 117 0.0 0.0 0.00 0.00 0.00 47 1014.9
20260504224548 21 117 0.0 0.0 0.00 0.00 0.00 47 1014.4
20260504224046 21 142 0.0 0.0 0.00 0.00 0.00 48 1014.9
20260504223543 21 136 0.0 0.0 0.00 0.00 0.00 48 1014.9
20260504223038 21 136 0.0 0.0 0.00 0.00 0.00 47 1014.9
20260504222535 20 136 0.0 0.0 0.00 0.00 0.00 48 1014.9
20260504222032 20 208 0.0 0.0 0.00 0.00 0.00 48 1014.9
20260504221530 20 120 0.0 0.0 0.00 0.00 0.00 48 1014.9
20260504221027 20 178 0.0 0.0 0.00 0.00 0.00 45 1014.9
20260504220523 19 107 0.0 0.0 0.00 0.00 0.00 45 1014.9
20260504220021 19 105 0.0 0.0 0.00 0.00 0.00 46 1014.9
20260504215517 19 119 0.0 3.2 0.00 0.00 0.00 44 1014.9
20260504215014 19 119 0.0 1.6 0.00 0.00 0.00 45 1014.9
20260504214510 20 155 0.0 0.0 0.00 0.00 0.00 45 1014.9
20260504214006 20 155 0.0 6.4 0.00 0.00 0.00 45 1014.9
20260504213502 20 166 1.6 6.4 0.00 0.00 0.00 46 1014.9
20260504213000 20 167 1.6 6.4 0.00 0.00 0.00 46 1014.9
20260504212456 20 123 0.0 6.4 0.00 0.00 0.00 47 1014.9
20260504211953 20 178 0.0 3.2 0.00 0.00 0.00 47 1014.9
20260504211449 20 180 0.0 3.2 0.00 0.00 0.00 47 1014.9
20260504210947 20 183 0.0 3.2 0.00 0.00 0.00 46 1014.9
20260504210444 21 190 0.0 3.2 0.00 0.00 0.00 47 1014.9
20260504205941 21 191 0.0 3.2 0.00 0.00 0.00 50 1014.9
20260504205438 21 191 0.0 3.2 0.00 0.00 0.00 50 1014.9
20260504204937 21 213 0.0 3.2 0.00 0.00 0.00 46 1014.9
20260504204434 21 222 0.0 3.2 0.00 0.00 0.00 46 1014.9
20260504203933 21 236 0.0 1.6 0.00 0.00 0.00 41 1014.9
20260504203431 21 236 0.0 1.6 0.00 0.00 0.00 43 1014.9
20260504202927 21 236 0.0 1.6 0.00 0.00 0.00 45 1014.9
20260504202423 21 236 0.0 1.6 0.00 0.00 0.00 41 1014.9
20260504201920 21 155 0.0 0.0 0.00 0.00 0.00 40 1015.2
20260504201418 21 155 0.0 0.0 0.00 0.00 0.00 43 1015.2
20260504200915 21 155 0.0 3.2 0.00 0.00 0.00 42 1015.2
20260504200411 21 155 0.0 3.2 0.00 0.00 0.00 41 1015.2
20260504195908 21 153 0.0 3.2 0.00 0.00 0.00 41 1015.2
20260504195403 21 323 0.0 6.4 0.00 0.00 0.00 39 1015.2
20260504194901 21 327 1.6 6.4 0.00 0.00 0.00 40 1015.2
20260504194356 21 331 1.6 6.4 0.00 0.00 0.00 36 1015.6
20260504193853 21 102 1.6 6.4 0.00 0.00 0.00 37 1015.6
20260504193350 21 176 1.6 6.4 0.00 0.00 0.00 38 1015.6
20260504192849 21 322 1.6 6.4 0.00 0.00 0.00 35 1015.6
20260504192346 21 308 1.6 6.4 0.00 0.00 0.00 39 1015.6
20260504191845 21 137 1.6 6.4 0.00 0.00 0.00 35 1015.6
20260504191342 21 112 1.6 6.4 0.00 0.00 0.00 40 1015.9
20260504190837 21 123 1.6 6.4 0.00 0.00 0.00 40 1015.9
20260504190333 21 128 1.6 6.4 0.00 0.00 0.00 43 1015.9
20260504185830 21 117 1.6 6.4 0.00 0.00 0.00 42 1015.9
20260504185327 21 196 1.6 6.4 0.00 0.00 0.00 40 1015.9
20260504184823 21 281 1.6 6.4 0.00 0.00 0.00 42 1015.9
20260504184319 21 115 1.6 8.0 0.00 0.00 0.00 40 1016.3
20260504183815 21 114 1.6 8.0 0.00 0.00 0.00 43 1015.9
20260504183312 21 290 1.6 8.0 0.00 0.00 0.00 42 1016.3
20260504182810 21 327 1.6 8.0 0.00 0.00 0.00 43 1016.3
20260504182307 20 114 1.6 8.0 0.00 0.00 0.00 42 1016.3
20260504181804 21 311 1.6 8.0 0.00 0.00 0.00 40 1016.3
20260504181301 21 286 1.6 9.7 0.00 0.00 0.00 42 1016.3
20260504180801 21 289 1.6 9.7 0.00 0.00 0.00 43 1016.7
20260504180259 20 313 1.6 8.0 0.00 0.00 0.00 44 1016.3
20260504175756 20 300 1.6 8.0 0.00 0.00 0.00 41 1016.7
20260504175253 20 308 1.6 9.7 0.00 0.00 0.00 41 1016.7
20260504174750 20 306 1.6 9.7 0.00 0.00 0.00 40 1016.7
20260504174249 20 279 1.6 9.7 0.00 0.00 0.00 41 1016.7
20260504173745 20 280 1.6 9.7 0.00 0.00 0.00 40 1016.7
20260504173242 20 130 1.6 6.4 0.00 0.00 0.00 42 1016.7
20260504172739 20 290 1.6 4.8 0.00 0.00 0.00 41 1016.7
20260504172235 20 125 1.6 14.5 0.00 0.00 0.00 42 1017.0
20260504171731 20 284 3.2 14.5 0.00 0.00 0.00 41 1017.0
20260504171228 20 89 1.6 6.4 0.00 0.00 0.00 43 1017.0
20260504170725 20 313 1.6 6.4 0.00 0.00 0.00 45 1017.0
20260504170223 19 287 1.6 8.0 0.00 0.00 0.00 44 1017.0
20260504160141 18 267 1.6 6.4 0.00 0.00 0.00 45 1018.1
20260504151109 16 309 3.2 16.1 0.00 0.00 0.00 49 1018.8
20260504150607 16 263 1.6 11.3 0.00 0.00 0.00 48 1018.8
20260504150104 16 130 1.6 8.0 0.00 0.00 0.00 48 1018.8
20260504141032 12 280 0.0 6.4 0.00 0.00 0.00 61 1018.8
20260504140528 12 246 0.0 3.2 0.00 0.00 0.00 63 1018.8
20260504130453 8 219 0.0 0.0 0.00 0.00 0.00 75 1018.5
20260504110340 2 219 0.0 0.0 0.00 0.00 0.00 90 1017.8
20260504100257 3 274 0.0 0.0 0.00 0.00 0.00 90 1017.8
20260504081650 4 140 0.0 0.0 0.00 0.00 0.00 88 1017.8
20260504081146 4 140 0.0 0.0 0.00 0.00 0.00 88 1017.3
20260504080643 4 140 0.0 0.0 0.00 0.00 0.00 86 1017.3
20260504080139 4 140 0.0 0.0 0.00 0.00 0.00 86 1017.3
20260504070108 5 140 0.0 0.0 0.00 0.00 0.00 85 1017.3
20260504050456 6 149 0.0 1.6 0.00 0.00 0.00 82 1017.8
20260504045953 6 149 0.0 0.0 0.00 0.00 0.00 81 1017.8
20260504045449 6 149 0.0 0.0 0.00 0.00 0.00 82 1017.8
20260504044945 6 149 0.0 0.0 0.00 0.00 0.00 82 1017.8
20260504044443 6 149 0.0 1.6 0.00 0.00 0.00 81 1017.8
20260504043940 7 149 0.0 3.2 0.00 0.00 0.00 79 1017.3
20260504043437 7 149 0.0 3.2 0.00 0.00 0.00 80 1017.3
20260504042934 7 149 0.0 0.0 0.00 0.00 0.00 80 1017.3
20260504042431 7 149 0.0 1.6 0.00 0.00 0.00 73 1017.3
20260504041927 7 149 0.0 1.6 0.00 0.00 0.00 74 1017.3